| time (UTC) | temp C | wind direction | speed KPH | gust KPH | rain 1hr cm | rain 24hr cm | rain mn cm | humidity % | barometer mb |
| 20260906223518 | 29 | 240 | 3.2 | 11.3 | 0.00 | 0.00 | 0.00 | 19 | 1011.5 |
| 20260906222517 | 30 | 232 | 3.2 | 9.7 | 0.00 | 0.00 | 0.00 | 19 | 1011.6 |
| 20260906221518 | 30 | 219 | 8.0 | 20.9 | 0.00 | 0.00 | 0.00 | 18 | 1011.7 |
| 20260906220518 | 30 | 205 | 6.4 | 17.7 | 0.00 | 0.00 | 0.00 | 18 | 1011.8 |
| 20260906215518 | 30 | 219 | 6.4 | 14.5 | 0.00 | 0.00 | 0.00 | 17 | 1011.8 |
| 20260906214516 | 30 | 206 | 8.0 | 20.9 | 0.00 | 0.00 | 0.00 | 16 | 1011.9 |
| 20260906213519 | 31 | 193 | 6.4 | 14.5 | 0.00 | 0.00 | 0.00 | 17 | 1011.9 |
| 20260906212519 | 31 | 217 | 8.0 | 14.5 | 0.00 | 0.00 | 0.00 | 17 | 1012.0 |
| 20260906211519 | 31 | 208 | 6.4 | 17.7 | 0.00 | 0.00 | 0.00 | 17 | 1012.1 |
| 20260906210517 | 31 | 211 | 6.4 | 14.5 | 0.00 | 0.00 | 0.00 | 17 | 1012.2 |
| 20260906205516 | 31 | 182 | 4.8 | 17.7 | 0.00 | 0.00 | 0.00 | 17 | 1012.3 |
| 20260906204541 | 31 | 219 | 6.4 | 16.1 | 0.00 | 0.00 | 0.00 | 17 | 1012.3 |
| 20260906203520 | 31 | 182 | 6.4 | 16.1 | 0.00 | 0.00 | 0.00 | 17 | 1012.3 |
| 20260906202517 | 31 | 212 | 8.0 | 17.7 | 0.00 | 0.00 | 0.00 | 17 | 1012.3 |
| 20260906201517 | 31 | 181 | 6.4 | 14.5 | 0.00 | 0.00 | 0.00 | 18 | 1012.5 |
| 20260906200517 | 31 | 173 | 6.4 | 19.3 | 0.00 | 0.00 | 0.00 | 18 | 1012.7 |
| 20260906195518 | 31 | 193 | 4.8 | 11.3 | 0.00 | 0.00 | 0.00 | 18 | 1012.9 |
| 20260906194518 | 31 | 208 | 6.4 | 14.5 | 0.00 | 0.00 | 0.00 | 18 | 1013.1 |
| 20260906193518 | 31 | 181 | 8.0 | 19.3 | 0.00 | 0.00 | 0.00 | 18 | 1013.3 |
| 20260906192518 | 31 | 158 | 8.0 | 16.1 | 0.00 | 0.00 | 0.00 | 18 | 1013.4 |
| 20260906191518 | 31 | 147 | 3.2 | 11.3 | 0.00 | 0.00 | 0.00 | 22 | 1013.8 |
| 20260906190518 | 30 | 50 | 3.2 | 12.9 | 0.00 | 0.00 | 0.00 | 22 | 1013.8 |
| 20260906185519 | 28 | 349 | 3.2 | 6.4 | 0.00 | 0.00 | 0.00 | 26 | 1014.1 |
| 20260906184520 | 28 | 11 | 3.2 | 11.3 | 0.00 | 0.00 | 0.00 | 27 | 1014.3 |
| 20260906183539 | 27 | 31 | 4.8 | 11.3 | 0.00 | 0.00 | 0.00 | 30 | 1014.6 |
| 20260906182536 | 27 | 14 | 3.2 | 9.7 | 0.00 | 0.00 | 0.00 | 28 | 1014.7 |
| 20260906181517 | 27 | 357 | 3.2 | 11.3 | 0.00 | 0.00 | 0.00 | 30 | 1015.1 |
| 20260906180519 | 27 | 25 | 3.2 | 9.7 | 0.00 | 0.00 | 0.00 | 29 | 1015.3 |
| 20260906175520 | 27 | 30 | 3.2 | 9.7 | 0.00 | 0.00 | 0.00 | 29 | 1015.5 |
| 20260906174520 | 26 | 25 | 3.2 | 8.0 | 0.00 | 0.00 | 0.00 | 29 | 1015.8 |
| 20260906173618 | 26 | 238 | 1.6 | 6.4 | 0.00 | 0.00 | 0.00 | 30 | 1016.0 |
| 20260906172557 | 26 | 293 | 1.6 | 8.0 | 0.00 | 0.00 | 0.00 | 30 | 1016.2 |
| 20260906171540 | 25 | 46 | 1.6 | 6.4 | 0.00 | 0.00 | 0.00 | 31 | 1016.4 |
| 20260906170517 | 24 | 335 | 3.2 | 9.7 | 0.00 | 0.00 | 0.00 | 32 | 1016.5 |
| 20260906165518 | 24 | 238 | 1.6 | 8.0 | 0.00 | 0.00 | 0.00 | 33 | 1016.7 |
| 20260906164518 | 23 | 337 | 3.2 | 8.0 | 0.00 | 0.00 | 0.00 | 33 | 1016.8 |
| 20260906163518 | 22 | 267 | 1.6 | 8.0 | 0.00 | 0.00 | 0.00 | 35 | 1017.0 |
| 20260906162538 | 22 | 224 | 1.6 | 6.4 | 0.00 | 0.00 | 0.00 | 36 | 1017.1 |
| 20260906161519 | 21 | 314 | 1.6 | 6.4 | 0.00 | 0.00 | 0.00 | 37 | 1017.2 |
| 20260906160519 | 21 | 262 | 3.2 | 9.7 | 0.00 | 0.00 | 0.00 | 38 | 1017.3 |
| 20260906155519 | 20 | 225 | 1.6 | 6.4 | 0.00 | 0.00 | 0.00 | 39 | 1017.3 |
| 20260906154517 | 20 | 237 | 1.6 | 6.4 | 0.00 | 0.00 | 0.00 | 40 | 1017.4 |
| 20260906153519 | 18 | 252 | 1.6 | 6.4 | 0.00 | 0.00 | 0.00 | 40 | 1017.3 |
| 20260906152519 | 18 | 226 | 3.2 | 9.7 | 0.00 | 0.00 | 0.00 | 41 | 1017.4 |
| 20260906151539 | 17 | 219 | 3.2 | 11.3 | 0.00 | 0.00 | 0.00 | 42 | 1017.6 |
| 20260906150517 | 17 | 244 | 1.6 | 6.4 | 0.00 | 0.00 | 0.00 | 45 | 1017.8 |
| 20260906145517 | 16 | 214 | 0.0 | 4.8 | 0.00 | 0.00 | 0.00 | 47 | 1017.9 |
| 20260906144523 | 14 | 250 | 1.6 | 6.4 | 0.00 | 0.00 | 0.00 | 49 | 1017.9 |
| 20260906143523 | 13 | 219 | 1.6 | 8.0 | 0.00 | 0.00 | 0.00 | 53 | 1018.1 |
| 20260906142544 | 12 | 237 | 0.0 | 4.8 | 0.00 | 0.00 | 0.00 | 56 | 1018.1 |
| 20260906141523 | 11 | 202 | 1.6 | 6.4 | 0.00 | 0.00 | 0.00 | 59 | 1018.3 |
| 20260906140524 | 10 | 0.0 | 0.0 | 0.00 | 0.00 | 0.00 | 62 | 1018.3 | |
| 20260906135524 | 9 | 226 | 0.0 | 1.6 | 0.00 | 0.00 | 0.00 | 63 | 1018.3 |
| 20260906134545 | 8 | 226 | 1.6 | 4.8 | 0.00 | 0.00 | 0.00 | 64 | 1018.2 |
| 20260906133524 | 8 | 230 | 0.0 | 3.2 | 0.00 | 0.00 | 0.00 | 66 | 1018.2 |
| 20260906132524 | 8 | 0.0 | 0.0 | 0.00 | 0.00 | 0.00 | 68 | 1018.0 | |
| 20260906131524 | 7 | 209 | 1.6 | 4.8 | 0.00 | 0.00 | 0.00 | 69 | 1017.9 |
| 20260906130525 | 7 | 217 | 0.0 | 1.6 | 0.00 | 0.00 | 0.00 | 70 | 1017.8 |
| 20260906125545 | 7 | 202 | 1.6 | 6.4 | 0.00 | 0.00 | 0.00 | 69 | 1017.9 |
| 20260906124525 | 7 | 208 | 0.0 | 3.2 | 0.00 | 0.00 | 0.00 | 70 | 1017.7 |
| 20260906123525 | 8 | 207 | 0.0 | 3.2 | 0.00 | 0.00 | 0.00 | 71 | 1017.7 |
| 20260906122546 | 8 | 197 | 0.0 | 3.2 | 0.00 | 0.00 | 0.00 | 66 | 1017.7 |
| 20260906121526 | 9 | 218 | 1.6 | 3.2 | 0.00 | 0.00 | 0.00 | 63 | 1017.8 |
| 20260906120526 | 9 | 235 | 0.0 | 3.2 | 0.00 | 0.00 | 0.00 | 63 | 1017.7 |
| 20260906115526 | 9 | 0.0 | 0.0 | 0.00 | 0.00 | 0.00 | 63 | 1017.7 | |
| 20260906114527 | 9 | 235 | 0.0 | 3.2 | 0.00 | 0.00 | 0.00 | 63 | 1017.7 |
| 20260906113526 | 8 | 260 | 0.0 | 1.6 | 0.00 | 0.00 | 0.00 | 65 | 1017.7 |
| 20260906112527 | 8 | 282 | 0.0 | 3.2 | 0.00 | 0.00 | 0.00 | 67 | 1017.5 |
| 20260906111527 | 8 | 0.0 | 0.0 | 0.00 | 0.00 | 0.00 | 69 | 1017.5 | |
| 20260906110527 | 8 | 0.0 | 0.0 | 0.00 | 0.00 | 0.00 | 69 | 1017.4 | |
| 20260906105527 | 8 | 230 | 0.0 | 3.2 | 0.00 | 0.00 | 0.00 | 68 | 1017.3 |
| 20260906104528 | 8 | 198 | 0.0 | 3.2 | 0.00 | 0.00 | 0.00 | 69 | 1017.1 |
| 20260906103548 | 8 | 207 | 0.0 | 3.2 | 0.00 | 0.00 | 0.00 | 68 | 1017.1 |
| 20260906102528 | 8 | 0.0 | 0.0 | 0.00 | 0.00 | 0.00 | 66 | 1017.1 | |
| 20260906101528 | 8 | 0.0 | 0.0 | 0.00 | 0.00 | 0.00 | 68 | 1017.0 | |
| 20260906100528 | 10 | 210 | 1.6 | 4.8 | 0.00 | 0.00 | 0.00 | 65 | 1017.0 |
| 20260906095528 | 11 | 239 | 1.6 | 4.8 | 0.00 | 0.00 | 0.00 | 61 | 1016.8 |
| 20260906094528 | 11 | 227 | 0.0 | 3.2 | 0.00 | 0.00 | 0.00 | 63 | 1016.7 |
| 20260906093529 | 12 | 329 | 0.0 | 3.2 | 0.00 | 0.00 | 0.00 | 58 | 1016.5 |
| 20260906092529 | 13 | 0.0 | 0.0 | 0.00 | 0.00 | 0.00 | 52 | 1016.3 | |
| 20260906091529 | 13 | 0.0 | 0.0 | 0.00 | 0.00 | 0.00 | 49 | 1016.2 | |
| 20260906090529 | 14 | 0.0 | 0.0 | 0.00 | 0.00 | 0.00 | 46 | 1015.9 | |
| 20260906085530 | 14 | 316 | 1.6 | 3.2 | 0.00 | 0.00 | 0.00 | 47 | 1015.8 |
| 20260906084529 | 14 | 332 | 1.6 | 4.8 | 0.00 | 0.00 | 0.00 | 49 | 1016.0 |
| 20260906083530 | 13 | 330 | 1.6 | 4.8 | 0.00 | 0.00 | 0.00 | 53 | 1016.1 |
| 20260906082530 | 12 | 0.0 | 0.0 | 0.00 | 0.00 | 0.00 | 56 | 1016.2 | |
| 20260906081530 | 12 | 0.0 | 0.0 | 0.00 | 0.00 | 0.00 | 55 | 1016.3 | |
| 20260906080551 | 11 | 0.0 | 0.0 | 0.00 | 0.00 | 0.00 | 64 | 1016.5 | |
| 20260906075530 | 11 | 0.0 | 0.0 | 0.00 | 0.00 | 0.00 | 63 | 1016.5 | |
| 20260906074515 | 12 | 0.0 | 0.0 | 0.00 | 0.00 | 0.00 | 61 | 1016.4 | |
| 20260906073531 | 12 | 0.0 | 0.0 | 0.00 | 0.00 | 0.00 | 59 | 1016.3 | |
| 20260906072532 | 13 | 0.0 | 0.0 | 0.00 | 0.00 | 0.00 | 57 | 1016.2 | |
| 20260906071531 | 13 | 0.0 | 0.0 | 0.00 | 0.00 | 0.00 | 52 | 1016.0 | |
| 20260906070531 | 14 | 0.0 | 0.0 | 0.00 | 0.00 | 0.00 | 49 | 1016.0 | |
| 20260906065537 | 15 | 0.0 | 0.0 | 0.00 | 0.00 | 0.00 | 49 | 1016.0 | |
| 20260906064517 | 15 | 88 | 0.0 | 1.6 | 0.00 | 0.00 | 0.00 | 47 | 1015.9 |
| 20260906063517 | 15 | 20 | 0.0 | 3.2 | 0.00 | 0.00 | 0.00 | 45 | 1015.9 |
| 20260906062517 | 16 | 339 | 0.0 | 1.6 | 0.00 | 0.00 | 0.00 | 43 | 1015.8 |
| 20260906061518 | 15 | 13 | 0.0 | 0.0 | 0.00 | 0.00 | 0.00 | 43 | 1015.7 |
| 20260906060538 | 15 | 353 | 1.6 | 6.4 | 0.00 | 0.00 | 0.00 | 46 | 1015.8 |
| 20260906055518 | 16 | 0.0 | 0.0 | 0.00 | 0.00 | 0.00 | 45 | 1015.6 | |
| 20260906054518 | 16 | 0.0 | 0.0 | 0.00 | 0.00 | 0.00 | 43 | 1015.6 | |
| 20260906053538 | 17 | 0.0 | 0.0 | 0.00 | 0.00 | 0.00 | 40 | 1015.5 | |
| 20260906052518 | 17 | 240 | 0.0 | 3.2 | 0.00 | 0.00 | 0.00 | 36 | 1015.4 |
| 20260906051519 | 17 | 0.0 | 0.0 | 0.00 | 0.00 | 0.00 | 37 | 1015.5 | |
| 20260906050519 | 18 | 0.0 | 0.0 | 0.00 | 0.00 | 0.00 | 36 | 1015.6 | |
| 20260906045516 | 18 | 0.0 | 0.0 | 0.00 | 0.00 | 0.00 | 38 | 1015.6 | |
| 20260906044516 | 18 | 0.0 | 0.0 | 0.00 | 0.00 | 0.00 | 38 | 1015.6 | |
| 20260906043520 | 18 | 0.0 | 0.0 | 0.00 | 0.00 | 0.00 | 41 | 1015.6 | |
| 20260906042518 | 18 | 0.0 | 0.0 | 0.00 | 0.00 | 0.00 | 41 | 1015.6 | |
| 20260906041517 | 18 | 316 | 0.0 | 3.2 | 0.00 | 0.00 | 0.00 | 42 | 1015.6 |
| 20260906040518 | 19 | 224 | 0.0 | 4.8 | 0.00 | 0.00 | 0.00 | 40 | 1015.6 |
| 20260906035518 | 20 | 0.0 | 0.0 | 0.00 | 0.00 | 0.00 | 35 | 1015.3 | |
| 20260906034518 | 20 | 0.0 | 0.0 | 0.00 | 0.00 | 0.00 | 34 | 1015.3 | |
| 20260906033518 | 20 | 296 | 0.0 | 3.2 | 0.00 | 0.00 | 0.00 | 34 | 1015.4 |
| 20260906032518 | 19 | 333 | 0.0 | 3.2 | 0.00 | 0.00 | 0.00 | 37 | 1015.5 |
| 20260906031518 | 20 | 0.0 | 0.0 | 0.00 | 0.00 | 0.00 | 38 | 1015.4 | |
| 20260906030519 | 20 | 0.0 | 0.0 | 0.00 | 0.00 | 0.00 | 39 | 1015.2 | |
| 20260906025518 | 20 | 0.0 | 0.0 | 0.00 | 0.00 | 0.00 | 38 | 1015.0 | |
| 20260906024519 | 21 | 0.0 | 0.0 | 0.00 | 0.00 | 0.00 | 38 | 1014.8 | |
| 20260906023519 | 22 | 0.0 | 0.0 | 0.00 | 0.00 | 0.00 | 35 | 1014.6 | |
| 20260906022519 | 22 | 0.0 | 0.0 | 0.00 | 0.00 | 0.00 | 34 | 1014.5 | |
| 20260906021516 | 23 | 234 | 0.0 | 3.2 | 0.00 | 0.00 | 0.00 | 31 | 1014.3 |
| 20260906020519 | 24 | 0.0 | 0.0 | 0.00 | 0.00 | 0.00 | 29 | 1014.1 | |
| 20260906015519 | 25 | 0.0 | 0.0 | 0.00 | 0.00 | 0.00 | 28 | 1014.1 | |
| 20260906014517 | 26 | 0.0 | 0.0 | 0.00 | 0.00 | 0.00 | 25 | 1014.0 | |
| 20260906013538 | 27 | 0.0 | 0.0 | 0.00 | 0.00 | 0.00 | 23 | 1014.0 | |
| 20260906012517 | 28 | 0.0 | 0.0 | 0.00 | 0.00 | 0.00 | 22 | 1013.9 | |
| 20260906011520 | 29 | 0.0 | 0.0 | 0.00 | 0.00 | 0.00 | 21 | 1013.9 | |
| 20260906010518 | 29 | 230 | 0.0 | 3.2 | 0.00 | 0.00 | 0.00 | 21 | 1013.9 |
| 20260906005518 | 30 | 256 | 1.6 | 6.4 | 0.00 | 0.00 | 0.00 | 20 | 1013.8 |
| 20260906004518 | 30 | 240 | 3.2 | 8.0 | 0.00 | 0.00 | 0.00 | 19 | 1013.8 |
| 20260906003518 | 30 | 241 | 1.6 | 6.4 | 0.00 | 0.00 | 0.00 | 19 | 1013.7 |
| 20260906002558 | 31 | 223 | 3.2 | 12.9 | 0.00 | 0.00 | 0.00 | 18 | 1013.6 |
| 20260906001539 | 31 | 222 | 3.2 | 8.0 | 0.00 | 0.00 | 0.00 | 19 | 1013.6 |
| 20260906000519 | 31 | 245 | 4.8 | 11.3 | 0.00 | 0.00 | 0.00 | 19 | 1013.6 |
| 20260905235517 | 32 | 249 | 6.4 | 12.9 | 0.00 | 0.00 | 0.00 | 18 | 1013.6 |
| 20260905234516 | 32 | 228 | 3.2 | 11.3 | 0.00 | 0.00 | 0.00 | 18 | 1013.7 |
| 20260905233520 | 32 | 229 | 1.6 | 6.4 | 0.00 | 0.00 | 0.00 | 18 | 1013.6 |
| 20260905232519 | 32 | 234 | 4.8 | 12.9 | 0.00 | 0.00 | 0.00 | 18 | 1013.6 |
| 20260905231517 | 32 | 224 | 4.8 | 12.9 | 0.00 | 0.00 | 0.00 | 18 | 1013.6 |
| 20260905230517 | 32 | 210 | 4.8 | 14.5 | 0.00 | 0.00 | 0.00 | 18 | 1013.7 |
| 20260905225517 | 32 | 206 | 6.4 | 16.1 | 0.00 | 0.00 | 0.00 | 19 | 1013.6 |
| 20260905224540 | 32 | 196 | 6.4 | 14.5 | 0.00 | 0.00 | 0.00 | 19 | 1013.7 |